User: anonymous   Login
Location: Unspecified
(0.0000°N, 0.0000°E)
Time: 20:00:19
(UTC+00:00)
Language:

AEROCUBE 6B - Orbit

View from above orbital plane
View from above orbital plane
View from above satellite
View from above satellite

Ground track
Ground track

The orbit data is extracted from the following two-line orbital elements,

1 40046U 14033AN  17269.29212679  .00000551  00000-0  87614-4 0  9999
2 40046  97.8535 152.0264 0056775 324.9447  34.8030 14.74911850175760
Epoch (UTC): 26 September 2017 07:00:39
Eccentricity: 0.0056775
inclination: 97.8535°
perigee height: 605 km
apogee height: 685 km
right ascension of ascending node: 152.0264°
argument of perigee: 324.9447°
revolutions per day: 14.74911850
mean anomaly at epoch: 34.8030°
orbit number at epoch: 17576

The dashed part of the orbit path shows where the satellite is in the earth's shadow,  

DLR